Regional Weather Roundup
Issued by NWS Sterling, VA

Home | Current Version | Previous Version | Text Only | Print | Product List | Glossary Off
Versions: 1 2 3 4 5 6 7 8 9 10 11 12 13 14 15 16 17 18 19 20 21 22 23 24 25 26 27

000
ASUS41 KLWX 122110
RWRLWX

REGIONAL WEATHER ROUNDUP
NATIONAL WEATHER SERVICE BALTIMORE MD/WASHINGTON DC
400 PM EST TUE DEC 12 2017

Note: "FAIR" indicates few or no clouds below 12,000 feet
with no significant weather and/or obstructions to visibility.
 TC=TEMPERATURE CELSIUS

 * =Non NWS site. Station does not report precipitation (e.g. rain,
    snow, etc.), thunder, or fog.

DCZ001-MDZ009-015-VAZ040>042-051-053>054-122200-
WASHINGTON METRO

CITY           SKY/WX    TMP DP  RH WIND       PRES   REMARKS
WASHINGTON NAT CLOUDY    45  26  47 NW14G23   29.56R
DULLES         FLURRIES  39  26  59 NW25G35   29.58R WCI  28
ANDREWS AFB    CLOUDY    43  25  49 NW16G25   29.53R
FT BELVOIR     CLOUDY    44  26  48 NW22G29   29.55R
QUANTICO       CLOUDY    45  28  51 N15G25    29.57R
COLLEGE PARK*  CLOUDY    43  25  48 NW6       29.54R
LEESBURG*      CLOUDY    39  27  60 NW18G24   29.60R
MANASSAS*      CLOUDY    39  25  57 NW24G38   29.59R WCI  28
GAITHERSBURG*  CLOUDY    38  20  48 NW16G26   29.57R WCI  29

$$

MDZ006>007-011-014-122200-
BALTIMORE METRO

CITY           SKY/WX    TMP DP  RH WIND       PRES   REMARKS
BWI AIRPORT    MOCLDY    42  26  53 NW20G30   29.53R
MD SCIENCE CTR   N/A     45  26  47 MISG      29.53R
MARTIN STATE   MOCLDY    45  28  53 W24G31    29.54R
ANNAPOLIS      CLOUDY    45  29  53 NW10      29.53R
FORT MEADE*    MOCLDY    43  28  56 W12G21    29.55S

$$

MDZ012-015-019>023-122200-
MARYLAND EASTERN SHORE

CITY           SKY/WX    TMP DP  RH WIND       PRES   REMARKS
OCEAN CITY     LGT RAIN  42  37  82 NW10      29.53R
SALISBURY      CLOUDY    41  38  89 CALM      29.52S
BAY BRIDGE AP* CLOUDY    45  30  57 NW17G24   29.53R
CAMBRIDGE*     CLOUDY    45  36  70 CALM      29.52R
EASTON*        CLOUDY    45  34  65 CALM      29.55R

$$

MDZ017>025-122200-
SOUTHERN MARYLAND

CITY           SKY/WX    TMP DP  RH WIND       PRES   REMARKS
PATUXENT RIVER CLOUDY    45  35  68 W6        29.53R
ST INIGOES     CLOUDY    45  36  70 W3        29.53R
LEONARDTOWN*   CLOUDY    45  32  61 W3        29.54R

$$

MDZ003>005-122200-
NORTH CENTRAL MARYLAND

CITY           SKY/WX    TMP DP  RH WIND       PRES   REMARKS
FREDERICK*     CLOUDY    39  18  41 NW12G17   29.61R
HAGERSTOWN APT CLOUDY    37  19  48 NW21G26   29.58R WCI  26
WESTMINSTER*   CLOUDY    39  25  56 NW14G21   29.54R

$$

MDZ501>502-122200-
WESTERN MARYLAND

CITY           SKY/WX    TMP DP  RH WIND       PRES   REMARKS
OAKLAND*       CLOUDY    18  14  86 NW13G23   29.51R VSB 1/4 WCI   4
CUMBERLAND*    PTCLDY    32  16  51 NW13G23   29.69R WCI  22

$$

VAZ025>031-122200-
SHENANDOAH VALLEY

CITY           SKY/WX    TMP DP  RH WIND       PRES   REMARKS
WINCHESTER*    CLOUDY    34  19  55 NW21G30   29.60R WCI  22
FRONT ROYAL*   CLOUDY    36  25  64 NW10G20   29.60R WCI  28
LURAY*         PTCLDY    36  23  60 NW10G22   29.60R WCI  28
NEW MARKET*    CLOUDY    35  21  55 NW8G20    29.61R WCI  29
STAUNTON*      MOCLDY    36  17  46 NW17G28   29.61R WCI  25
WAYNESBORO*    CLOUDY    35  22  60 W5        29.59R

$$

WVZ021-048>050-054>055-122200-
EASTERN WEST VIRGINIA PANHANDLE

CITY           SKY/WX    TMP DP  RH WIND       PRES   REMARKS
MARTINSBURG    CLOUDY    36  17  46 NW20G26   29.60R WCI  25
PETERSBURG*    CLOUDY    32  17  53 NW15G21   29.67R WCI  21

$$

VAZ036>039-050-122200-
CENTRAL FOOTHILLS

CITY           SKY/WX    TMP DP  RH WIND       PRES   REMARKS
CHARLOTTESVILL CLOUDY    40  26  57 W6        29.59R
CULPEPER*      CLOUDY    41  25  52 N14G23    29.60R
ORANGE*        LGT RAIN  41  27  56 NW12G25   29.57R
GORDONSVILLE*  CLOUDY    41  25  52 NW7G18    29.59R
WARRENTON*     CLOUDY    42  23  47 NW17G25   29.57R

$$

VAZ055>057-122200-
NORTH AND CENTRAL PIEDMONT

CITY           SKY/WX    TMP DP  RH WIND       PRES   REMARKS
FREDERICKSBRG* CLOUDY    46  31  56 NW8       29.55R
STAFFORD*      CLOUDY    44  27  50 NW16      29.59R

$$

NCZ024-NYZ072-PAZ021-071-VAZ022-071-122200-
OTHER REGIONAL OBSERVATIONS

CITY           SKY/WX    TMP DP  RH WIND       PRES   REMARKS
NEW YORK CITY  CLOUDY    44  34  67 W7        29.44F
PHILADELPHIA   CLOUDY    44  31  60 NW15      29.49R
PITTSBURGH     SNOW      21  14  74 NW26      29.74R VSB 1/2 WCI   4
ROANOKE        LGT SNOW  32  27  81 NW20G36   29.70R WCI  20
RICHMOND       CLOUDY    49  28  44 NW20G25   29.54R
RALEIGH        MOCLDY    50  27  40 W12G17    29.62S

$$

ANZ530>537-122200-
MARINE OBSERVATIONS

STATION/POSITION TIME  TEMP    WIND        PRES
                       AIR SEA DIR/SP/G
                 (UTC) (F)     (DEG/KT/KT) (MB)
THOMAS PT LIGHT  2100   45 47  310/ 18/ 20   N/A
BALT KEY BRIDGE  2048   44     310/ 20/ 22  999.4R
COVE POINT       2048   46     330/  8/ 14 1000.4R
LEWISETTA        2048   46 45  320/  3/  3  999.9R
SOLOMONS ISLAND  2048   46 48  310/  6/  9  999.5R
PINEY POINT      2042          310/  7/  8   N/A

$$





USA.gov is the U.S. government's official web portal to all federal, state and local government web resources and services.